Year,Month,Day,Hour,Minute,Value (Times are PST for temperature in C)
2010,08,14,00,00,17.30
2010,08,14,00,01,17.30
2010,08,14,00,02,17.30
2010,08,14,00,03,17.30
2010,08,14,00,04,17.30
2010,08,14,00,05,17.30
2010,08,14,00,06,17.40
2010,08,14,00,07,17.40
2010,08,14,00,08,17.40
2010,08,14,00,09,17.40
2010,08,14,00,10,17.40
2010,08,14,00,11,17.40
2010,08,14,00,12,17.40
2010,08,14,00,13,17.30
2010,08,14,00,14,17.30
2010,08,14,00,15,17.30
2010,08,14,00,16,17.30
2010,08,14,00,17,17.30
2010,08,14,00,18,17.20
2010,08,14,00,19,17.20
2010,08,14,00,20,17.20
2010,08,14,00,21,17.20
2010,08,14,00,22,17.10
2010,08,14,00,23,17.10
2010,08,14,00,24,17.10
2010,08,14,00,25,17.10
2010,08,14,00,26,17.10
2010,08,14,00,27,17.00
2010,08,14,00,28,17.00
2010,08,14,00,29,16.90
2010,08,14,00,30,16.90
2010,08,14,00,31,16.90
2010,08,14,00,32,16.80
2010,08,14,00,33,16.70
2010,08,14,00,34,16.70
2010,08,14,00,35,16.60
2010,08,14,00,36,16.60
2010,08,14,00,37,16.50
2010,08,14,00,38,16.50
2010,08,14,00,39,16.50
2010,08,14,00,40,16.50
2010,08,14,00,41,16.40
2010,08,14,00,42,16.40
2010,08,14,00,43,16.40
2010,08,14,00,44,16.40
2010,08,14,00,45,16.40
2010,08,14,00,46,16.40
2010,08,14,00,47,16.30
2010,08,14,00,48,16.30
2010,08,14,00,49,16.30
2010,08,14,00,50,16.30
2010,08,14,00,51,16.30
2010,08,14,00,52,16.30
2010,08,14,00,53,16.30
2010,08,14,00,54,16.30
2010,08,14,00,55,16.30
2010,08,14,00,56,16.30
2010,08,14,00,57,16.30
2010,08,14,00,58,16.30
2010,08,14,00,59,16.20
2010,08,14,01,00,16.20
2010,08,14,01,01,16.20
2010,08,14,01,02,16.20
2010,08,14,01,03,16.30
2010,08,14,01,04,16.30
2010,08,14,01,05,16.30
2010,08,14,01,06,16.30
2010,08,14,01,07,16.30
2010,08,14,01,08,16.30
2010,08,14,01,09,16.20
2010,08,14,01,10,16.20
2010,08,14,01,11,16.20
2010,08,14,01,12,16.20
2010,08,14,01,13,16.20
2010,08,14,01,14,16.20
2010,08,14,01,15,16.20
2010,08,14,01,16,16.20
2010,08,14,01,17,16.10
2010,08,14,01,18,16.10
2010,08,14,01,19,16.10
2010,08,14,01,20,16.00
2010,08,14,01,21,16.00
2010,08,14,01,22,16.00
2010,08,14,01,23,15.90
2010,08,14,01,24,15.90
2010,08,14,01,25,15.90
2010,08,14,01,26,15.90
2010,08,14,01,27,15.80
2010,08,14,01,28,15.80
2010,08,14,01,29,15.80
2010,08,14,01,30,15.80
2010,08,14,01,31,15.80
2010,08,14,01,32,15.80
2010,08,14,01,33,15.80
2010,08,14,01,34,15.80
2010,08,14,01,35,15.80
2010,08,14,01,36,15.80
2010,08,14,01,37,15.80
2010,08,14,01,38,15.80
2010,08,14,01,39,15.80
2010,08,14,01,40,15.80
2010,08,14,01,41,15.80
2010,08,14,01,42,15.80
2010,08,14,01,43,15.80
2010,08,14,01,44,15.80
2010,08,14,01,45,15.80
2010,08,14,01,46,15.80
2010,08,14,01,47,15.80
2010,08,14,01,48,15.70
2010,08,14,01,49,15.70
2010,08,14,01,50,15.70
2010,08,14,01,51,15.70
2010,08,14,01,52,15.70
2010,08,14,01,53,15.70
2010,08,14,01,54,15.70
2010,08,14,01,55,15.70
2010,08,14,01,56,15.70
2010,08,14,01,57,15.80
2010,08,14,01,58,15.80
2010,08,14,01,59,15.80
2010,08,14,02,00,15.80
2010,08,14,02,01,15.80
2010,08,14,02,02,15.80
2010,08,14,02,03,15.80
2010,08,14,02,04,15.70
2010,08,14,02,05,15.70
2010,08,14,02,06,15.60
2010,08,14,02,07,15.60
2010,08,14,02,08,15.50
2010,08,14,02,09,15.50
2010,08,14,02,10,15.40
2010,08,14,02,11,15.40
2010,08,14,02,12,15.40
2010,08,14,02,13,15.40
2010,08,14,02,14,15.30
2010,08,14,02,15,15.30
2010,08,14,02,16,15.30
2010,08,14,02,17,15.30
2010,08,14,02,18,15.30
2010,08,14,02,19,15.20
2010,08,14,02,20,15.20
2010,08,14,02,21,15.20
2010,08,14,02,22,15.20
2010,08,14,02,23,15.20
2010,08,14,02,24,15.20
2010,08,14,02,25,15.20
2010,08,14,02,26,15.20
2010,08,14,02,27,15.20
2010,08,14,02,28,15.20
2010,08,14,02,29,15.20
2010,08,14,02,30,15.10
2010,08,14,02,31,15.10
2010,08,14,02,32,15.10
2010,08,14,02,33,15.10
2010,08,14,02,34,15.10
2010,08,14,02,35,15.10
2010,08,14,02,36,15.10
2010,08,14,02,37,15.10
2010,08,14,02,38,15.10
2010,08,14,02,39,15.10
2010,08,14,02,40,15.10
2010,08,14,02,41,15.10
2010,08,14,02,42,15.10
2010,08,14,02,43,15.10
2010,08,14,02,44,15.10
2010,08,14,02,45,15.10
2010,08,14,02,46,15.10
2010,08,14,02,47,15.10
2010,08,14,02,48,15.10
2010,08,14,02,49,15.10
2010,08,14,02,50,15.20
2010,08,14,02,51,15.20
2010,08,14,02,52,15.20
2010,08,14,02,53,15.20
2010,08,14,02,54,15.20
2010,08,14,02,55,15.20
2010,08,14,02,56,15.20
2010,08,14,02,57,15.20
2010,08,14,02,58,15.20
2010,08,14,02,59,15.20
2010,08,14,03,00,15.20
2010,08,14,03,01,15.20
2010,08,14,03,02,15.20
2010,08,14,03,03,15.20
2010,08,14,03,04,15.20
2010,08,14,03,05,15.20
2010,08,14,03,06,15.20
2010,08,14,03,07,15.20
2010,08,14,03,08,15.20
2010,08,14,03,09,15.20
2010,08,14,03,10,15.20
2010,08,14,03,11,15.10
2010,08,14,03,12,15.10
2010,08,14,03,13,15.10
2010,08,14,03,14,15.10
2010,08,14,03,15,15.10
2010,08,14,03,16,15.00
2010,08,14,03,17,15.00
2010,08,14,03,18,14.90
2010,08,14,03,19,14.90
2010,08,14,03,20,14.90
2010,08,14,03,21,14.80
2010,08,14,03,22,14.80
2010,08,14,03,23,14.80
2010,08,14,03,24,14.80
2010,08,14,03,25,14.80
2010,08,14,03,26,14.80
2010,08,14,03,27,14.80
2010,08,14,03,28,14.80
2010,08,14,03,29,14.80
2010,08,14,03,30,14.80
2010,08,14,03,31,14.80
2010,08,14,03,32,14.80
2010,08,14,03,33,14.80
2010,08,14,03,34,14.80
2010,08,14,03,35,14.80
2010,08,14,03,36,14.80
2010,08,14,03,37,14.80
2010,08,14,03,38,14.80
2010,08,14,03,39,14.80
2010,08,14,03,40,14.80
2010,08,14,03,41,14.80
2010,08,14,03,42,14.80
2010,08,14,03,43,14.80
2010,08,14,03,44,14.80
2010,08,14,03,45,14.80
2010,08,14,03,46,14.80
2010,08,14,03,47,14.80
2010,08,14,03,48,14.80
2010,08,14,03,49,14.80
2010,08,14,03,50,14.80
2010,08,14,03,51,14.70
2010,08,14,03,52,14.70
2010,08,14,03,53,14.70
2010,08,14,03,54,14.70
2010,08,14,03,55,14.70
2010,08,14,03,56,14.70
2010,08,14,03,57,14.70
2010,08,14,03,58,14.70
2010,08,14,03,59,14.70
2010,08,14,04,00,14.70
2010,08,14,04,01,14.70
2010,08,14,04,02,14.70
2010,08,14,04,03,14.70
2010,08,14,04,04,14.60
2010,08,14,04,05,14.60
2010,08,14,04,06,14.60
2010,08,14,04,07,14.60
2010,08,14,04,08,14.60
2010,08,14,04,09,14.60
2010,08,14,04,10,14.60
2010,08,14,04,11,14.60
2010,08,14,04,12,14.60
2010,08,14,04,13,14.50
2010,08,14,04,14,14.50
2010,08,14,04,15,14.50
2010,08,14,04,16,14.50
2010,08,14,04,17,14.50
2010,08,14,04,18,14.50
2010,08,14,04,19,14.60
2010,08,14,04,20,14.60
2010,08,14,04,21,14.60
2010,08,14,04,22,14.60
2010,08,14,04,23,14.60
2010,08,14,04,24,14.60
2010,08,14,04,25,14.60
2010,08,14,04,26,14.70
2010,08,14,04,27,14.70
2010,08,14,04,28,14.70
2010,08,14,04,29,14.70
2010,08,14,04,30,14.70
2010,08,14,04,31,14.70
2010,08,14,04,32,14.80
2010,08,14,04,33,14.70
2010,08,14,04,34,14.70
2010,08,14,04,35,14.70
2010,08,14,04,36,14.70
2010,08,14,04,37,14.70
2010,08,14,04,38,14.70
2010,08,14,04,39,14.70
2010,08,14,04,40,14.70
2010,08,14,04,41,14.70
2010,08,14,04,42,14.70
2010,08,14,04,43,14.70
2010,08,14,04,44,14.70
2010,08,14,04,45,14.70
2010,08,14,04,46,14.70
2010,08,14,04,47,14.70
2010,08,14,04,48,14.70
2010,08,14,04,49,14.70
2010,08,14,04,50,14.70
2010,08,14,04,51,14.70
2010,08,14,04,52,14.70
2010,08,14,04,53,14.70
2010,08,14,04,54,14.70
2010,08,14,04,55,14.70
2010,08,14,04,56,14.70
2010,08,14,04,57,14.70
2010,08,14,04,58,14.70
2010,08,14,04,59,14.60
2010,08,14,05,00,14.60
2010,08,14,05,01,14.50
2010,08,14,05,02,14.40
2010,08,14,05,03,14.40
2010,08,14,05,04,14.40
2010,08,14,05,05,14.30
2010,08,14,05,06,14.30
2010,08,14,05,07,14.30
2010,08,14,05,08,14.30
2010,08,14,05,09,14.30
2010,08,14,05,10,14.30
2010,08,14,05,11,14.20
2010,08,14,05,12,14.20
2010,08,14,05,13,14.20
2010,08,14,05,14,14.20
2010,08,14,05,15,14.20
2010,08,14,05,16,14.20
2010,08,14,05,17,14.10
2010,08,14,05,18,14.10
2010,08,14,05,19,14.10
2010,08,14,05,20,14.10
2010,08,14,05,21,14.10
2010,08,14,05,22,14.10
2010,08,14,05,23,14.10
2010,08,14,05,24,14.10
2010,08,14,05,25,14.10
2010,08,14,05,26,14.10
2010,08,14,05,27,14.10
2010,08,14,05,28,14.10
2010,08,14,05,29,14.10
2010,08,14,05,30,14.10
2010,08,14,05,31,14.10
2010,08,14,05,32,14.10
2010,08,14,05,33,14.10
2010,08,14,05,34,14.10
2010,08,14,05,35,14.10
2010,08,14,05,36,14.20
2010,08,14,05,37,14.20
2010,08,14,05,38,14.20
2010,08,14,05,39,14.20
2010,08,14,05,40,14.20
2010,08,14,05,41,14.30
2010,08,14,05,42,14.30
2010,08,14,05,43,14.30
2010,08,14,05,44,14.30
2010,08,14,05,45,14.30
2010,08,14,05,46,14.30
2010,08,14,05,47,14.30
2010,08,14,05,48,14.30
2010,08,14,05,49,14.30
2010,08,14,05,50,14.30
2010,08,14,05,51,14.30
2010,08,14,05,52,14.30
2010,08,14,05,53,14.30
2010,08,14,05,54,14.30
2010,08,14,05,55,14.30
2010,08,14,05,56,14.40
2010,08,14,05,57,14.40
2010,08,14,05,58,14.50
2010,08,14,05,59,14.60
2010,08,14,06,00,14.70
2010,08,14,06,01,14.80
2010,08,14,06,02,14.90
2010,08,14,06,03,14.90
2010,08,14,06,04,14.90
2010,08,14,06,05,14.90
2010,08,14,06,06,14.90
2010,08,14,06,07,14.90
2010,08,14,06,08,14.90
2010,08,14,06,09,14.90
2010,08,14,06,10,14.80
2010,08,14,06,11,14.80
2010,08,14,06,12,14.80
2010,08,14,06,13,14.80
2010,08,14,06,14,14.80
2010,08,14,06,15,14.80
2010,08,14,06,16,14.70
2010,08,14,06,17,14.70
2010,08,14,06,18,14.70
2010,08,14,06,19,14.70
2010,08,14,06,20,14.70
2010,08,14,06,21,14.70
2010,08,14,06,22,14.70
2010,08,14,06,23,14.70
2010,08,14,06,24,14.70
2010,08,14,06,25,14.70
2010,08,14,06,26,14.70
2010,08,14,06,27,14.70
2010,08,14,06,28,14.70
2010,08,14,06,29,14.70
2010,08,14,06,30,14.70
2010,08,14,06,31,14.70
2010,08,14,06,32,14.70
2010,08,14,06,33,14.70
2010,08,14,06,34,14.80
2010,08,14,06,35,14.80
2010,08,14,06,36,14.80
2010,08,14,06,37,14.90
2010,08,14,06,38,14.90
2010,08,14,06,39,15.00
2010,08,14,06,40,15.10
2010,08,14,06,41,15.10
2010,08,14,06,42,15.20
2010,08,14,06,43,15.20
2010,08,14,06,44,15.20
2010,08,14,06,45,15.30
2010,08,14,06,46,15.30
2010,08,14,06,47,15.40
2010,08,14,06,48,15.40
2010,08,14,06,49,15.50
2010,08,14,06,50,15.50
2010,08,14,06,51,15.60
2010,08,14,06,52,15.60
2010,08,14,06,53,15.70
2010,08,14,06,54,15.70
2010,08,14,06,55,15.80
2010,08,14,06,56,15.90
2010,08,14,06,57,16.00
2010,08,14,06,58,16.10
2010,08,14,06,59,16.20
2010,08,14,07,00,16.30
2010,08,14,07,01,16.40
2010,08,14,07,02,16.50
2010,08,14,07,03,16.60
2010,08,14,07,04,16.70
2010,08,14,07,05,16.70
2010,08,14,07,06,16.80
2010,08,14,07,07,16.80
2010,08,14,07,08,16.90
2010,08,14,07,09,16.90
2010,08,14,07,10,16.90
2010,08,14,07,11,16.90
2010,08,14,07,12,16.90
2010,08,14,07,13,16.80
2010,08,14,07,14,16.80
2010,08,14,07,15,16.80
2010,08,14,07,16,16.80
2010,08,14,07,17,16.80
2010,08,14,07,18,16.90
2010,08,14,07,19,16.90
2010,08,14,07,20,17.00
2010,08,14,07,21,17.00
2010,08,14,07,22,17.10
2010,08,14,07,23,17.20
2010,08,14,07,24,17.20
2010,08,14,07,25,17.30
2010,08,14,07,26,17.40
2010,08,14,07,27,17.50
2010,08,14,07,28,17.60
2010,08,14,07,29,17.70
2010,08,14,07,30,17.80
2010,08,14,07,31,17.80
2010,08,14,07,32,17.90
2010,08,14,07,33,18.00
2010,08,14,07,34,18.00
2010,08,14,07,35,18.10
2010,08,14,07,36,18.10
2010,08,14,07,37,18.20
2010,08,14,07,38,18.20
2010,08,14,07,39,18.30
2010,08,14,07,40,18.40
2010,08,14,07,41,18.50
2010,08,14,07,42,18.70
2010,08,14,07,43,18.80
2010,08,14,07,44,19.00
2010,08,14,07,45,19.10
2010,08,14,07,46,19.20
2010,08,14,07,47,19.30
2010,08,14,07,48,19.30
2010,08,14,07,49,19.40
2010,08,14,07,50,19.40
2010,08,14,07,51,19.40
2010,08,14,07,52,19.40
2010,08,14,07,53,19.50
2010,08,14,07,54,19.50
2010,08,14,07,55,19.60
2010,08,14,07,56,19.70
2010,08,14,07,57,19.70
2010,08,14,07,58,19.80
2010,08,14,07,59,19.80
2010,08,14,08,00,19.90
2010,08,14,08,01,19.90
2010,08,14,08,02,20.00
2010,08,14,08,03,20.10
2010,08,14,08,04,20.10
2010,08,14,08,05,20.20
2010,08,14,08,06,20.30
2010,08,14,08,07,20.30
2010,08,14,08,08,20.40
2010,08,14,08,09,20.50
2010,08,14,08,10,20.60
2010,08,14,08,11,20.70
2010,08,14,08,12,20.80
2010,08,14,08,13,20.80
2010,08,14,08,14,20.90
2010,08,14,08,15,21.00
2010,08,14,08,16,21.10
2010,08,14,08,17,21.20
2010,08,14,08,18,21.30
2010,08,14,08,19,21.40
2010,08,14,08,20,21.50
2010,08,14,08,21,21.60
2010,08,14,08,22,21.70
2010,08,14,08,23,21.90
2010,08,14,08,24,22.10
2010,08,14,08,25,22.30
2010,08,14,08,26,22.60
2010,08,14,08,27,22.80
2010,08,14,08,28,23.00
2010,08,14,08,29,23.20
2010,08,14,08,30,23.50
2010,08,14,08,31,23.70
2010,08,14,08,32,23.80
2010,08,14,08,33,24.00
2010,08,14,08,34,24.20
2010,08,14,08,35,24.30
2010,08,14,08,36,24.40
2010,08,14,08,37,24.60
2010,08,14,08,38,24.70
2010,08,14,08,39,24.80
2010,08,14,08,40,24.90
2010,08,14,08,41,24.90
2010,08,14,08,42,25.00
2010,08,14,08,43,25.10
2010,08,14,08,44,25.20
2010,08,14,08,45,25.20
2010,08,14,08,46,25.30
2010,08,14,08,47,25.40
2010,08,14,08,48,25.40
2010,08,14,08,49,25.50
2010,08,14,08,50,25.50
2010,08,14,08,51,25.60
2010,08,14,08,52,25.60
2010,08,14,08,53,25.60
2010,08,14,08,54,25.70
2010,08,14,08,55,25.70
2010,08,14,08,56,25.80
2010,08,14,08,57,25.80
2010,08,14,08,58,25.80
2010,08,14,08,59,25.80
2010,08,14,09,00,25.80
2010,08,14,09,01,25.80
2010,08,14,09,02,25.90
2010,08,14,09,03,25.90
2010,08,14,09,04,25.90
2010,08,14,09,05,25.90
2010,08,14,09,06,26.00
2010,08,14,09,07,26.00
2010,08,14,09,08,26.00
2010,08,14,09,09,26.00
2010,08,14,09,10,26.00
2010,08,14,09,11,26.00
2010,08,14,09,12,26.00
2010,08,14,09,13,26.10
2010,08,14,09,14,26.10
2010,08,14,09,15,26.20
2010,08,14,09,16,26.20
2010,08,14,09,17,26.20
2010,08,14,09,18,26.20
2010,08,14,09,19,26.10
2010,08,14,09,20,26.10
2010,08,14,09,21,26.10
2010,08,14,09,22,26.10
2010,08,14,09,23,26.10
2010,08,14,09,24,26.10
2010,08,14,09,25,26.00
2010,08,14,09,26,25.90
2010,08,14,09,27,25.90
2010,08,14,09,28,25.90
2010,08,14,09,29,25.90
2010,08,14,09,30,25.90
2010,08,14,09,31,25.90
2010,08,14,09,32,26.00
2010,08,14,09,33,26.00
2010,08,14,09,34,26.00
2010,08,14,09,35,26.00
2010,08,14,09,36,26.00
2010,08,14,09,37,26.10
2010,08,14,09,38,26.10
2010,08,14,09,39,26.20
2010,08,14,09,40,26.30
2010,08,14,09,41,26.30
2010,08,14,09,42,26.20
2010,08,14,09,43,26.20
2010,08,14,09,44,26.30
2010,08,14,09,45,26.30
2010,08,14,09,46,26.40
2010,08,14,09,47,26.50
2010,08,14,09,48,26.50
2010,08,14,09,49,26.50
2010,08,14,09,50,26.60
2010,08,14,09,51,26.60
2010,08,14,09,52,26.60
2010,08,14,09,53,26.60
2010,08,14,09,54,26.60
2010,08,14,09,55,26.60
2010,08,14,09,56,26.60
2010,08,14,09,57,26.60
2010,08,14,09,58,26.60
2010,08,14,09,59,26.60
2010,08,14,10,00,26.60
2010,08,14,10,01,26.60
2010,08,14,10,02,26.60
2010,08,14,10,03,26.70
2010,08,14,10,04,26.70
2010,08,14,10,05,26.70
2010,08,14,10,06,26.70
2010,08,14,10,07,26.70
2010,08,14,10,08,26.70
2010,08,14,10,09,26.80
2010,08,14,10,10,26.80
2010,08,14,10,11,26.90
2010,08,14,10,12,26.90
2010,08,14,10,13,26.90
2010,08,14,10,14,26.80
2010,08,14,10,15,26.80
2010,08,14,10,16,26.80
2010,08,14,10,17,26.70
2010,08,14,10,18,26.60
2010,08,14,10,19,26.60
2010,08,14,10,20,26.60
2010,08,14,10,21,26.70
2010,08,14,10,22,26.70
2010,08,14,10,23,26.80
2010,08,14,10,24,26.90
2010,08,14,10,25,26.90
2010,08,14,10,26,27.00
2010,08,14,10,27,27.10
2010,08,14,10,28,27.20
2010,08,14,10,29,27.20
2010,08,14,10,30,27.20
2010,08,14,10,31,27.20
2010,08,14,10,32,27.10
2010,08,14,10,33,27.10
2010,08,14,10,34,27.10
2010,08,14,10,35,27.10
2010,08,14,10,36,27.10
2010,08,14,10,37,27.00
2010,08,14,10,38,27.10
2010,08,14,10,39,27.10
2010,08,14,10,40,27.20
2010,08,14,10,41,27.20
2010,08,14,10,42,27.20
2010,08,14,10,43,27.20
2010,08,14,10,44,27.20
2010,08,14,10,45,27.20
2010,08,14,10,46,27.20
2010,08,14,10,47,27.30
2010,08,14,10,48,27.30
2010,08,14,10,49,27.30
2010,08,14,10,50,27.40
2010,08,14,10,51,27.40
2010,08,14,10,52,27.30
2010,08,14,10,53,27.30
2010,08,14,10,54,27.30
2010,08,14,10,55,27.20
2010,08,14,10,56,27.10
2010,08,14,10,57,27.00
2010,08,14,10,58,26.90
2010,08,14,10,59,26.80
2010,08,14,11,00,26.80
2010,08,14,11,01,26.80
2010,08,14,11,02,26.80
2010,08,14,11,03,26.80
2010,08,14,11,04,26.80
2010,08,14,11,05,26.80
2010,08,14,11,06,26.80
2010,08,14,11,07,26.90
2010,08,14,11,08,27.00
2010,08,14,11,09,27.00
2010,08,14,11,10,27.10
2010,08,14,11,11,27.10
2010,08,14,11,12,27.20
2010,08,14,11,13,27.20
2010,08,14,11,14,27.30
2010,08,14,11,15,27.30
2010,08,14,11,16,27.30
2010,08,14,11,17,27.30
2010,08,14,11,18,27.40
2010,08,14,11,19,27.40
2010,08,14,11,20,27.40
2010,08,14,11,21,27.40
2010,08,14,11,22,27.40
2010,08,14,11,23,27.40
2010,08,14,11,24,27.30
2010,08,14,11,25,27.30
2010,08,14,11,26,27.30
2010,08,14,11,27,27.30
2010,08,14,11,28,27.30
2010,08,14,11,29,27.40
2010,08,14,11,30,27.40
2010,08,14,11,31,27.40
2010,08,14,11,32,27.30
2010,08,14,11,33,27.20
2010,08,14,11,34,27.10
2010,08,14,11,35,27.10
2010,08,14,11,36,27.10
2010,08,14,11,37,27.10
2010,08,14,11,38,27.10
2010,08,14,11,39,27.10
2010,08,14,11,40,27.00
2010,08,14,11,41,27.00
2010,08,14,11,42,27.00
2010,08,14,11,43,27.00
2010,08,14,11,44,27.10
2010,08,14,11,45,27.20
2010,08,14,11,46,27.20
2010,08,14,11,47,27.30
2010,08,14,11,48,27.40
2010,08,14,11,49,27.40
2010,08,14,11,50,27.50
2010,08,14,11,51,27.60
2010,08,14,11,52,27.70
2010,08,14,11,53,27.60
2010,08,14,11,54,27.70
2010,08,14,11,55,27.70
2010,08,14,11,56,27.80
2010,08,14,11,57,27.80
2010,08,14,11,58,27.80
2010,08,14,11,59,27.80
2010,08,14,12,00,27.80
2010,08,14,12,01,27.80
2010,08,14,12,02,27.90
2010,08,14,12,03,27.90
2010,08,14,12,04,27.90
2010,08,14,12,05,27.80
2010,08,14,12,06,27.80
2010,08,14,12,07,27.70
2010,08,14,12,08,27.70
2010,08,14,12,09,27.70
2010,08,14,12,10,27.60
2010,08,14,12,11,27.60
2010,08,14,12,12,27.60
2010,08,14,12,13,27.60
2010,08,14,12,14,27.60
2010,08,14,12,15,27.60
2010,08,14,12,16,27.60
2010,08,14,12,17,27.70
2010,08,14,12,18,27.80
2010,08,14,12,19,27.80
2010,08,14,12,20,27.80
2010,08,14,12,21,27.80
2010,08,14,12,22,27.80
2010,08,14,12,23,27.80
2010,08,14,12,24,27.80
2010,08,14,12,25,27.70
2010,08,14,12,26,27.60
2010,08,14,12,27,27.60
2010,08,14,12,28,27.70
2010,08,14,12,29,27.70
2010,08,14,12,30,27.80
2010,08,14,12,31,27.80
2010,08,14,12,32,27.80
2010,08,14,12,33,27.80
2010,08,14,12,34,27.80
2010,08,14,12,35,27.80
2010,08,14,12,36,27.80
2010,08,14,12,37,27.80
2010,08,14,12,38,27.80
2010,08,14,12,39,27.90
2010,08,14,12,40,27.90
2010,08,14,12,41,27.90
2010,08,14,12,42,27.90
2010,08,14,12,43,28.00
2010,08,14,12,44,28.10
2010,08,14,12,45,28.10
2010,08,14,12,46,28.20
2010,08,14,12,47,28.20
2010,08,14,12,48,28.20
2010,08,14,12,49,28.30
2010,08,14,12,50,28.30
2010,08,14,12,51,28.40
2010,08,14,12,52,28.40
2010,08,14,12,53,28.40
2010,08,14,12,54,28.50
2010,08,14,12,55,28.60
2010,08,14,12,56,28.70
2010,08,14,12,57,28.80
2010,08,14,12,58,28.80
2010,08,14,12,59,28.70
2010,08,14,13,00,28.60
2010,08,14,13,01,28.60
2010,08,14,13,02,28.50
2010,08,14,13,03,28.40
2010,08,14,13,04,28.40
2010,08,14,13,05,28.30
2010,08,14,13,06,28.30
2010,08,14,13,07,28.40
2010,08,14,13,08,28.50
2010,08,14,13,09,28.60
2010,08,14,13,10,28.70
2010,08,14,13,11,28.70
2010,08,14,13,12,28.80
2010,08,14,13,13,28.80
2010,08,14,13,14,28.80
2010,08,14,13,15,28.80
2010,08,14,13,16,28.90
2010,08,14,13,17,28.80
2010,08,14,13,18,28.80
2010,08,14,13,19,28.80
2010,08,14,13,20,28.80
2010,08,14,13,21,28.80
2010,08,14,13,22,28.80
2010,08,14,13,23,28.80
2010,08,14,13,24,28.80
2010,08,14,13,25,28.90
2010,08,14,13,26,28.80
2010,08,14,13,27,28.80
2010,08,14,13,28,28.80
2010,08,14,13,29,28.80
2010,08,14,13,30,28.80
2010,08,14,13,31,28.90
2010,08,14,13,32,28.90
2010,08,14,13,33,29.00
2010,08,14,13,34,29.10
2010,08,14,13,35,29.20
2010,08,14,13,36,29.30
2010,08,14,13,37,29.30
2010,08,14,13,38,29.40
2010,08,14,13,39,29.50
2010,08,14,13,40,29.60
2010,08,14,13,41,29.60
2010,08,14,13,42,29.60
2010,08,14,13,43,29.50
2010,08,14,13,44,29.50
2010,08,14,13,45,29.50
2010,08,14,13,46,29.50
2010,08,14,13,47,29.60
2010,08,14,13,48,29.70
2010,08,14,13,49,29.80
2010,08,14,13,50,29.80
2010,08,14,13,51,29.80
2010,08,14,13,52,29.80
2010,08,14,13,53,29.70
2010,08,14,13,54,29.70
2010,08,14,13,55,29.60
2010,08,14,13,56,29.60
2010,08,14,13,57,29.60
2010,08,14,13,58,29.60
2010,08,14,13,59,29.60
2010,08,14,14,00,29.60
2010,08,14,14,01,29.60
2010,08,14,14,02,29.60
2010,08,14,14,03,29.60
2010,08,14,14,04,29.60
2010,08,14,14,05,29.60
2010,08,14,14,06,29.60
2010,08,14,14,07,29.60
2010,08,14,14,08,29.70
2010,08,14,14,09,29.80
2010,08,14,14,10,29.80
2010,08,14,14,11,29.90
2010,08,14,14,12,29.80
2010,08,14,14,13,29.80
2010,08,14,14,14,29.80
2010,08,14,14,15,29.80
2010,08,14,14,16,29.90
2010,08,14,14,17,29.90
2010,08,14,14,18,29.90
2010,08,14,14,19,30.00
2010,08,14,14,20,30.10
2010,08,14,14,21,30.10
2010,08,14,14,22,30.10
2010,08,14,14,23,30.10
2010,08,14,14,24,30.20
2010,08,14,14,25,30.30
2010,08,14,14,26,30.30
2010,08,14,14,27,30.30
2010,08,14,14,28,30.20
2010,08,14,14,29,30.20
2010,08,14,14,30,30.20
2010,08,14,14,31,30.20
2010,08,14,14,32,30.30
2010,08,14,14,33,30.20
2010,08,14,14,34,30.20
2010,08,14,14,35,30.20
2010,08,14,14,36,30.20
2010,08,14,14,37,30.10
2010,08,14,14,38,30.10
2010,08,14,14,39,30.00
2010,08,14,14,40,30.00
2010,08,14,14,41,30.10
2010,08,14,14,42,30.10
2010,08,14,14,43,30.20
2010,08,14,14,44,30.30
2010,08,14,14,45,30.30
2010,08,14,14,46,30.40
2010,08,14,14,47,30.40
2010,08,14,14,48,30.40
2010,08,14,14,49,30.50
2010,08,14,14,50,30.60
2010,08,14,14,51,30.50
2010,08,14,14,52,30.40
2010,08,14,14,53,30.40
2010,08,14,14,54,30.40
2010,08,14,14,55,30.50
2010,08,14,14,56,30.60
2010,08,14,14,57,30.60
2010,08,14,14,58,30.60
2010,08,14,14,59,30.70
2010,08,14,15,00,30.80
2010,08,14,15,01,30.80
2010,08,14,15,02,30.90
2010,08,14,15,03,31.00
2010,08,14,15,04,31.00
2010,08,14,15,05,31.10
2010,08,14,15,06,31.10
2010,08,14,15,07,31.20
2010,08,14,15,08,31.10
2010,08,14,15,09,31.10
2010,08,14,15,10,31.10
2010,08,14,15,11,31.20
2010,08,14,15,12,31.20
2010,08,14,15,13,31.20
2010,08,14,15,14,31.10
2010,08,14,15,15,31.10
2010,08,14,15,16,31.20
2010,08,14,15,17,31.30
2010,08,14,15,18,31.30
2010,08,14,15,19,31.40
2010,08,14,15,20,31.40
2010,08,14,15,21,31.40
2010,08,14,15,22,31.40
2010,08,14,15,23,31.40
2010,08,14,15,24,31.40
2010,08,14,15,25,31.40
2010,08,14,15,26,31.40
2010,08,14,15,27,31.40
2010,08,14,15,28,31.40
2010,08,14,15,29,31.40
2010,08,14,15,30,31.40
2010,08,14,15,31,31.40
2010,08,14,15,32,31.50
2010,08,14,15,33,31.60
2010,08,14,15,34,31.70
2010,08,14,15,35,31.80
2010,08,14,15,36,31.80
2010,08,14,15,37,31.80
2010,08,14,15,38,31.70
2010,08,14,15,39,31.70
2010,08,14,15,40,31.60
2010,08,14,15,41,31.50
2010,08,14,15,42,31.50
2010,08,14,15,43,31.40
2010,08,14,15,44,31.40
2010,08,14,15,45,31.40
2010,08,14,15,46,31.40
2010,08,14,15,47,31.40
2010,08,14,15,48,31.40
2010,08,14,15,49,31.40
2010,08,14,15,50,31.40
2010,08,14,15,51,31.30
2010,08,14,15,52,31.30
2010,08,14,15,53,31.20
2010,08,14,15,54,31.20
2010,08,14,15,55,31.30
2010,08,14,15,56,31.30
2010,08,14,15,57,31.20
2010,08,14,15,58,31.20
2010,08,14,15,59,31.20
2010,08,14,16,00,31.20
2010,08,14,16,01,31.20
2010,08,14,16,02,31.20
2010,08,14,16,03,31.20
2010,08,14,16,04,31.30
2010,08,14,16,05,31.30
2010,08,14,16,06,31.30
2010,08,14,16,07,31.40
2010,08,14,16,08,31.60
2010,08,14,16,09,31.60
2010,08,14,16,10,31.60
2010,08,14,16,11,31.50
2010,08,14,16,12,31.50
2010,08,14,16,13,31.40
2010,08,14,16,14,31.40
2010,08,14,16,15,31.40
2010,08,14,16,16,31.50
2010,08,14,16,17,31.50
2010,08,14,16,18,31.50
2010,08,14,16,19,31.50
2010,08,14,16,20,31.60
2010,08,14,16,21,31.60
2010,08,14,16,22,31.60
2010,08,14,16,23,31.60
2010,08,14,16,24,31.60
2010,08,14,16,25,31.50
2010,08,14,16,26,31.50
2010,08,14,16,27,31.40
2010,08,14,16,28,31.50
2010,08,14,16,29,31.50
2010,08,14,16,30,31.60
2010,08,14,16,31,31.60
2010,08,14,16,32,31.60
2010,08,14,16,33,31.60
2010,08,14,16,34,31.60
2010,08,14,16,35,31.70
2010,08,14,16,36,31.70
2010,08,14,16,37,31.70
2010,08,14,16,38,31.80
2010,08,14,16,39,31.80
2010,08,14,16,40,31.80
2010,08,14,16,41,31.90
2010,08,14,16,42,31.90
2010,08,14,16,43,31.90
2010,08,14,16,44,31.90
2010,08,14,16,45,31.90
2010,08,14,16,46,32.00
2010,08,14,16,47,32.00
2010,08,14,16,48,32.00
2010,08,14,16,49,31.90
2010,08,14,16,50,31.80
2010,08,14,16,51,31.80
2010,08,14,16,52,31.80
2010,08,14,16,53,31.80
2010,08,14,16,54,31.80
2010,08,14,16,55,31.70
2010,08,14,16,56,31.70
2010,08,14,16,57,31.70
2010,08,14,16,58,31.80
2010,08,14,16,59,31.80
2010,08,14,17,00,31.80
2010,08,14,17,01,31.80
2010,08,14,17,02,31.80
2010,08,14,17,03,31.80
2010,08,14,17,04,31.80
2010,08,14,17,05,31.80
2010,08,14,17,06,31.80
2010,08,14,17,07,31.80
2010,08,14,17,08,31.70
2010,08,14,17,09,31.70
2010,08,14,17,10,31.70
2010,08,14,17,11,31.70
2010,08,14,17,12,31.60
2010,08,14,17,13,31.60
2010,08,14,17,14,31.60
2010,08,14,17,15,31.60
2010,08,14,17,16,31.60
2010,08,14,17,17,31.60
2010,08,14,17,18,31.60
2010,08,14,17,19,31.60